When you browse on this site, cookies collect data to enhance your experience and personalize the content and advertising you see.
Visit our Privacy Policy to learn more. By continuing to use the site, you agree to this use of cookies and data.
  • In Czech Republic
  • List of Countries
  • For 7 days
  • Water Temperature
  • Satellite Maps
  • Weather Map
  • Weather Widgets
  • user-avatar
    Login

    Hourly Weather Mitino

    Today, 19 November, Monday

    Time Temperature Precipitation Wind Pressure Humidity
    00:00 +1°C° 0 mm 2 mps 758 mmHg 96%
    01:00 +1°C° 0.1 mm 2 mps 759 mmHg 95%
    02:00 +1°C° 0.1 mm 2 mps 759 mmHg 94%
    03:00 0°C° 0.1 mm 3 mps 759 mmHg 94%
    04:00 0°C° 0.1 mm 3 mps 760 mmHg 93%
    05:00 0°C° 0.1 mm 3 mps 760 mmHg 92%
    06:00 -1°C° 0.1 mm 3 mps 760 mmHg 91%
    07:00 -1°C° 0 mm 3 mps 761 mmHg 91%
    08:00 -1°C° 0 mm 3 mps 761 mmHg 90%
    09:00 -1°C° 0 mm 3 mps 762 mmHg 89%
    10:00 -1°C° 0 mm 3 mps 762 mmHg 87%
    11:00 -1°C° 0 mm 3 mps 763 mmHg 86%
    12:00 -1°C° 0 mm 3 mps 763 mmHg 84%
    13:00 -1°C° 0 mm 3 mps 763 mmHg 84%
    14:00 -1°C° 0 mm 3 mps 763 mmHg 83%
    15:00 -1°C° 0 mm 3 mps 764 mmHg 83%
    16:00 -1°C° 0 mm 3 mps 764 mmHg 84%
    17:00 -2°C° 0 mm 3 mps 764 mmHg 84%
    18:00 -2°C° 0 mm 3 mps 764 mmHg 85%
    19:00 -2°C° 0 mm 2 mps 764 mmHg 85%
    20:00 -2°C° 0 mm 2 mps 764 mmHg 86%
    21:00 -3°C° 0 mm 2 mps 764 mmHg 86%
    22:00 -3°C° 0 mm 2 mps 764 mmHg 87%
    23:00 -3°C° 0 mm 2 mps 764 mmHg 87%

    Tomorrow, 20 November, Tuesday

    Time Temperature Precipitation Wind Pressure Humidity
    00:00 -1°C° 0 mm 1 mps 764 mmHg 88%
    01:00 -1°C° 0 mm 1 mps 764 mmHg 87%
    02:00 -1°C° 0 mm 1 mps 764 mmHg 86%
    03:00 -1°C° 0 mm 1 mps 764 mmHg 85%
    04:00 -1°C° 0 mm 1 mps 763 mmHg 85%
    05:00 -4°C° 0 mm 2 mps 763 mmHg 85%
    06:00 -4°C° 0 mm 2 mps 762 mmHg 85%
    07:00 -4°C° 0 mm 2 mps 762 mmHg 86%
    08:00 -2°C° 0 mm 1 mps 762 mmHg 86%
    09:00 -2°C° 0 mm 1 mps 762 mmHg 86%
    10:00 -4°C° 0 mm 2 mps 761 mmHg 82%
    11:00 -3°C° 0 mm 2 mps 761 mmHg 78%
    12:00 -3°C° 0 mm 2 mps 761 mmHg 75%
    13:00 -3°C° 0 mm 2 mps 760 mmHg 74%
    14:00 -3°C° 0 mm 2 mps 760 mmHg 74%
    15:00 -4°C° 0 mm 3 mps 759 mmHg 73%
    16:00 -4°C° 0 mm 3 mps 759 mmHg 74%
    17:00 -4°C° 0 mm 3 mps 758 mmHg 76%
    18:00 -5°C° 0 mm 3 mps 758 mmHg 77%
    19:00 -5°C° 0 mm 3 mps 758 mmHg 76%
    20:00 -4°C° 0 mm 3 mps 757 mmHg 75%
    21:00 -4°C° 0 mm 3 mps 757 mmHg 75%
    22:00 -4°C° 0 mm 4 mps 757 mmHg 76%
    23:00 -4°C° 0 mm 4 mps 756 mmHg 77%

    Day after tomorrow, 21 November, Wednesday

    Time Temperature Precipitation Wind Pressure Humidity
    00:00 -4°C° 0 mm 4 mps 756 mmHg 78%
    01:00 -4°C° 0 mm 4 mps 756 mmHg 80%
    02:00 -4°C° 0 mm 4 mps 756 mmHg 82%
    03:00 -3°C° 0 mm 4 mps 756 mmHg 84%
    04:00 -3°C° 0 mm 4 mps 756 mmHg 85%
    05:00 -3°C° 0 mm 4 mps 756 mmHg 86%
    06:00 -3°C° 0 mm 4 mps 756 mmHg 87%
    07:00 -3°C° 0 mm 4 mps 756 mmHg 87%
    08:00 -3°C° 0 mm 4 mps 757 mmHg 86%
    09:00 -1°C° 0 mm 3 mps 757 mmHg 85%
    10:00 -2°C° 0 mm 4 mps 757 mmHg 82%
    11:00 -2°C° 0 mm 4 mps 757 mmHg 78%
    12:00 -2°C° 0 mm 4 mps 758 mmHg 75%
    13:00 -2°C° 0 mm 4 mps 758 mmHg 74%
    14:00 -1°C° 0 mm 3 mps 758 mmHg 73%
    15:00 -2°C° 0 mm 3 mps 758 mmHg 72%
    16:00 -2°C° 0 mm 3 mps 757 mmHg 75%
    17:00 -4°C° 0 mm 3 mps 757 mmHg 78%
    18:00 -4°C° 0 mm 3 mps 757 mmHg 80%
    19:00 -5°C° 0 mm 3 mps 757 mmHg 83%
    20:00 -5°C° 0 mm 3 mps 757 mmHg 85%
    21:00 -5°C° 0 mm 3 mps 756 mmHg 87%
    22:00 -5°C° 0 mm 3 mps 756 mmHg 87%
    23:00 -5°C° 0 mm 4 mps 756 mmHg 87%

    22 November, Thursday

    Time Temperature Precipitation Wind Pressure Humidity
    00:00 -5°C° 0 mm 4 mps 755 mmHg 87%
    01:00 -7°C° 0 mm 4 mps 755 mmHg 86%
    02:00 -7°C° 0 mm 4 mps 755 mmHg 86%
    03:00 -7°C° 0 mm 4 mps 754 mmHg 85%
    04:00 -5°C° 0 mm 4 mps 754 mmHg 85%
    05:00 -5°C° 0 mm 5 mps 753 mmHg 85%
    06:00 -5°C° 0 mm 6 mps 753 mmHg 85%
    07:00 -4°C° 0.1 mm 6 mps 752 mmHg 84%
    08:00 -4°C° 0.1 mm 6 mps 752 mmHg 83%
    09:00 -4°C° 0.1 mm 5 mps 751 mmHg 82%
    10:00 -3°C° 0.1 mm 6 mps 751 mmHg 82%
    11:00 -3°C° 0.1 mm 6 mps 751 mmHg 81%
    12:00 -3°C° 0.1 mm 6 mps 750 mmHg 81%
    13:00 -2°C° 0.1 mm 6 mps 750 mmHg 81%
    14:00 -2°C° 0.1 mm 6 mps 750 mmHg 82%
    15:00 -2°C° 0.1 mm 6 mps 750 mmHg 82%
    16:00 -2°C° 0.1 mm 6 mps 750 mmHg 81%
    17:00 -2°C° 0.1 mm 6 mps 750 mmHg 81%
    18:00 -2°C° 0.1 mm 6 mps 751 mmHg 80%
    19:00 -2°C° 0 mm 5 mps 752 mmHg 78%
    20:00 -2°C° 0 mm 5 mps 753 mmHg 76%
    21:00 -3°C° 0 mm 4 mps 753 mmHg 75%
    22:00 -3°C° 0 mm 4 mps 754 mmHg 75%
    23:00 -4°C° 0 mm 3 mps 755 mmHg 75%

    23 November, Friday

    Time Temperature Precipitation Wind Pressure Humidity
    00:00 -5°C° 0 mm 3 mps 755 mmHg 75%
    01:00 -5°C° 0 mm 3 mps 756 mmHg 76%
    02:00 -5°C° 0 mm 3 mps 756 mmHg 76%
    03:00 -5°C° 0 mm 3 mps 757 mmHg 77%
    04:00 -5°C° 0 mm 3 mps 757 mmHg 79%
    05:00 -6°C° 0 mm 3 mps 757 mmHg 80%
    06:00 -5°C° 0 mm 2 mps 758 mmHg 82%
    07:00 -5°C° 0 mm 2 mps 758 mmHg 84%
    08:00 -5°C° 0 mm 2 mps 758 mmHg 85%
    09:00 -5°C° 0 mm 2 mps 758 mmHg 87%
    10:00 -4°C° 0 mm 2 mps 758 mmHg 85%
    11:00 -5°C° 0 mm 3 mps 758 mmHg 83%
    12:00 -4°C° 0 mm 3 mps 758 mmHg 81%
    13:00 -4°C° 0 mm 4 mps 757 mmHg 83%
    14:00 -4°C° 0 mm 4 mps 757 mmHg 85%
    15:00 -5°C° 0 mm 5 mps 756 mmHg 87%
    16:00 -4°C° 0 mm 5 mps 756 mmHg 86%
    17:00 -4°C° 0 mm 5 mps 755 mmHg 86%
    18:00 -4°C° 0 mm 5 mps 754 mmHg 85%
    19:00 -4°C° 0 mm 6 mps 754 mmHg 85%
    20:00 -3°C° 0 mm 6 mps 753 mmHg 84%
    21:00 -3°C° 0 mm 6 mps 752 mmHg 83%
    22:00 -3°C° 0.1 mm 6 mps 752 mmHg 82%
    23:00 -3°C° 0.1 mm 6 mps 751 mmHg 81%

    24 November, Saturday

    Time Temperature Precipitation Wind Pressure Humidity
    00:00 -4°C° 0.1 mm 6 mps 751 mmHg 80%
    01:00 -3°C° 0.1 mm 6 mps 750 mmHg 80%
    02:00 -3°C° 0.1 mm 6 mps 750 mmHg 79%
    03:00 -3°C° 0.1 mm 6 mps 750 mmHg 79%
    04:00 -3°C° 0.1 mm 6 mps 750 mmHg 79%
    05:00 -3°C° 0.1 mm 6 mps 749 mmHg 79%
    06:00 -3°C° 0.1 mm 6 mps 749 mmHg 80%
    07:00 -3°C° 0.1 mm 6 mps 749 mmHg 80%
    08:00 -1°C° 0.1 mm 5 mps 749 mmHg 81%
    09:00 -1°C° 0.1 mm 5 mps 749 mmHg 81%
    10:00 -1°C° 0 mm 5 mps 749 mmHg 80%
    11:00 -1°C° 0 mm 5 mps 749 mmHg 79%
    12:00 -1°C° 0 mm 5 mps 749 mmHg 78%
    13:00 -1°C° 0 mm 5 mps 749 mmHg 78%
    14:00 -1°C° 0 mm 5 mps 749 mmHg 77%
    15:00 -1°C° 0 mm 5 mps 749 mmHg 77%
    16:00 -1°C° 0 mm 5 mps 749 mmHg 77%
    17:00 -2°C° 0 mm 5 mps 750 mmHg 78%
    18:00 -2°C° 0 mm 5 mps 750 mmHg 78%
    19:00 -2°C° 0 mm 5 mps 750 mmHg 79%
    20:00 -2°C° 0 mm 5 mps 750 mmHg 79%
    21:00 -3°C° 0 mm 4 mps 750 mmHg 80%
    22:00 -3°C° 0 mm 4 mps 750 mmHg 82%
    23:00 -3°C° 0 mm 4 mps 751 mmHg 84%
    Show more